Tracking 18785 objects as of 20-August-2017
HD Live streaming from Space Station
objects crossing your sky now

OPS 9332 (IDSCS 17)

Track OPS 9332 (IDSCS 17) now!
OPS 9332 (IDSCS 17) is classified as:


NORAD ID: 2863
Int'l Code: 1967-066B
Perigee: 33,025.3 km
Apogee: 33,563.7 km
Inclination: 4.7 °
Period: 1,310.3 minutes
Semi major axis: 39665 km
RCS: 0.6309 m2 (medium)
Launch date: July 1, 1967
Source: United States (US)
Launch site: AIR FORCE EASTERN TEST RANGE (AFETR)
Your satellite tracking list
Your tracking list is empty





NASA's NSSDC Master Catalog

Two Line Element Set (TLE):
1 02863U 67066B   17232.45661057 -.00000076  00000-0  00000+0 0  9996
2 02863   4.7193 291.6479 0067879 341.4037  19.0989  1.09896416 89447
Source of the keplerian elements: AFSPC